Location: Marcé
(47.5801°N, 0.3280°W)
Time: 21:49:59
(UTC+01:00)

Tiros 1 - Pass Details

Date: 30 November 2021
Orbit: 630 x 663 km, 48.4° (Epoch: 20 January)

Event Time Altitude Azimuth Distance (km) Brightness Sun altitude
Rises 23:07:41 0° 265° (W) 2,941 - -57.0°
Reaches altitude 10° 23:10:00 10° 266° (W) 2,038 - -57.3°
Maximum altitude 23:14:43 82° 355° (N) 660 - -57.9°
Drops below altitude 10° 23:19:29 10° 83° (E) 2,062 - -58.4°
Sets 23:21:51 0° 84° (E) 2,979 - -58.7°
